Wind_Speed
36 34 33 32 31 31 31 29 28 24 21 19 17 16 15 15 14 14 14 14 13 13 12 12 12 12 12 12 13 13 14 14 16 16 17 18 19 20 22 24 25 26 27 27
41 39 38 36 33 33 32 30 29 26 23 21 19 18 17 17 16 15 15 15 15 15 15 15 14 14 14 14 15 16 16 17 18 18 19 20 21 22 24 25 27 28 29 30
42 42 42 40 35 34 34 32 30 28 25 24 22 21 20 20 18 17 17 17 17 16 16 16 16 17 16 16 17 17 18 19 19 20 20 21 22 23 24 26 28 29 30 32
42 42 44 40 37 36 35 34 32 30 27 26 24 23 23 21 20 20 20 19 19 19 18 18 18 19 18 18 18 18 19 21 21 21 22 23 24 24 25 26 28 29 31 33
39 40 40 37 36 36 36 35 32 30 28 27 25 24 23 23 22 22 22 21 21 20 20 20 20 20 20 20 20 19 20 22 23 23 24 25 25 26 27 28 28 30 31 33
35 36 36 34 34 34 35 34 30 29 29 28 26 26 24 23 23 23 22 22 22 22 22 21 21 21 21 21 21 21 22 23 25 26 26 27 27 28 29 29 30 32 33 34
32 33 32 30 30 32 33 30 29 28 28 28 26 26 25 25 24 23 23 23 23 24 23 22 22 22 22 22 22 23 24 25 25 27 28 29 29 30 31 32 33 34 35 36
29 29 28 26 27 28 29 28 28 27 28 28 27 26 25 24 24 23 23 23 23 23 23 22 21 22 22 23 24 25 25 26 27 27 28 29 30 31 32 33 35 35 37 38
25 25 24 24 24 24 25 25 26 26 27 26 26 26 26 25 24 24 24 24 24 24 22 22 23 23 23 23 24 25 26 26 27 28 29 30 31 33 34 34 35 35 37 39
21 21 20 20 22 23 24 24 24 25 25 24 24 24 25 24 23 23 25 25 24 23 22 22 22 22 23 24 24 25 26 27 28 29 30 31 32 34 35 36 37 37 38 38
17 17 18 18 19 21 22 23 23 23 23 24 23 24 23 22 22 23 24 25 24 23 23 22 22 23 24 25 26 27 28 28 29 30 31 32 34 35 36 37 38 39 39 40
15 14 15 15 17 18 20 21 21 20 21 23 23 23 24 22 21 22 22 23 23 22 22 22 23 24 25 26 27 28 29 30 30 31 32 32 34 35 36 37 38 39 39 40
13 13 13 13 14 16 16 17 18 19 19 20 21 21 21 20 21 20 20 20 20 20 21 21 22 24 25 26 27 29 30 30 31 32 32 33 34 35 36 37 39 39 40 41
11 11 11 12 12 13 14 14 16 16 17 17 17 17 17 17 17 17 17 18 19 20 21 22 23 25 26 27 28 30 31 32 33 34 34 35 36 37 38 39 40 41 42 43
10 11 10 10 10 11 11 12 13 13 13 13 12 12 13 15 15 16 16 18 19 20 22 24 25 26 27 28 30 31 32 33 34 35 36 37 38 39 40 42 43 44 45 45
10 10 10 9 9 9 9 9 9 10 10 10 11 11 12 13 15 16 17 18 20 21 23 24 26 27 28 30 32 33 35 36 37 38 39 40 41 42 43 44 45 45 46 47
10 10 10 9 9 9 9 9 9 9 9 10 11 11 12 14 15 17 18 20 21 23 24 26 27 29 31 32 33 34 36 37 39 40 41 43 44 45 45 46 46 47 47 48
8 9 9 9 9 9 9 9 9 10 10 11 11 12 13 15 16 18 19 21 23 25 26 28 29 31 32 33 35 36 38 40 41 43 44 45 45 45 46 46 47 47 48 48
8 9 9 9 10 9 9 9 10 11 11 12 13 14 15 16 18 20 21 23 25 26 28 29 31 32 33 35 37 38 40 41 42 43 43 44 44 45 45 45 46 45 45 44
10 10 9 9 9 9 9 10 11 11 12 14 15 16 18 19 21 23 24 26 27 29 30 31 33 34 35 37 38 39 40 41 41 41 42 42 42 42 42 42 42 41 41 40
11 11 10 10 11 11 11 12 13 14 15 16 18 19 21 22 24 25 27 28 29 31 32 33 34 35 36 37 38 39 39 40 40 40 40 40 40 40 40 40 40 39 38 38
11 12 12 13 13 13 14 15 16 17 18 19 20 22 23 24 26 27 29 30 31 32 33 34 35 35 37 38 38 38 39 39 39 39 39 39 38 38 38 37 37 36 35 35
12 13 14 15 15 15 16 16 17 19 20 21 22 24 25 26 27 29 30 31 32 33 34 34 36 37 38 38 38 38 38 37 37 37 36 36 35 35 35 34 33 33 32 32
14 14 14 15 16 17 18 19 20 21 23 24 25 26 27 28 29 30 32 32 33 33 34 36 37 38 38 38 37 37 36 36 35 34 33 33 33 32 31 30 30 29 29 29
14 15 16 17 18 19 20 22 23 24 25 26 27 28 28 29 30 31 32 33 34 34 35 37 37 37 36 35 35 34 33 33 32 31 31 30 30 29 29 28 28 27 27 27
16 17 18 19 20 21 22 23 24 24 25 26 27 28 29 30 31 31 32 33 34 34 35 35 34 34 34 33 31 30 29 29 29 28 28 28 28 27 27 26 26 26 26 25
17 18 19 20 21 22 23 24 24 25 26 26 27 28 29 30 31 32 32 33 33 33 32 32 31 31 30 28 27 26 26 26 26 26 26 26 26 25 25 24 25 24 24 22
Wind_Direction
264 263 259 255 255 255 256 259 263 265 266 270 273 274 271 270 272 273 268 264 262 258 255 255 255 254 253 251 250 249 248 247 248 248 250 252 255 257 256 256 257 259 260 263
262 264 262 257 254 254 256 257 262 264 263 265 268 268 269 269 266 265 260 256 254 256 256 258 255 254 255 255 254 254 253 252 253 255 256 256 258 259 259 258 258 260 262 264
261 261 261 259 256 255 256 257 259 260 260 261 261 262 266 265 261 263 258 255 254 255 254 257 253 252 254 256 256 254 256 257 258 259 260 260 261 262 263 262 262 263 265 265
260 260 260 260 258 256 255 255 256 258 259 259 259 262 260 260 261 261 256 253 253 253 252 255 253 253 255 256 258 260 259 261 261 261 263 263 264 265 266 267 266 266 267 267
259 260 261 259 257 255 254 254 254 255 255 255 257 259 257 256 259 259 255 254 253 252 249 251 253 254 256 258 258 262 260 260 262 264 266 266 267 268 269 269 269 269 270 270
259 259 259 259 258 256 253 252 250 251 251 253 254 254 254 253 254 252 250 252 253 253 255 253 253 254 257 259 261 263 263 264 265 266 268 268 268 269 270 271 271 272 272 273
259 259 260 259 256 252 251 250 248 248 247 249 249 248 249 250 250 250 251 251 253 253 252 251 253 256 259 261 263 265 264 266 267 269 272 272 272 272 274 275 274 274 274 274
257 257 258 257 254 252 250 246 244 243 244 246 247 246 246 248 248 247 249 251 252 250 249 251 255 258 262 265 267 267 268 270 271 274 275 275 274 275 277 278 277 276 277 277
256 255 256 252 251 249 245 242 240 241 242 243 243 244 245 244 246 248 250 250 249 248 249 252 256 259 262 265 268 270 270 273 276 276 277 278 277 277 279 279 279 278 279 278
254 251 248 243 240 239 239 238 237 238 237 238 241 243 243 245 247 249 248 247 247 248 250 254 258 261 264 267 270 273 275 277 278 279 279 280 279 279 279 279 279 280 280 281
246 243 239 237 236 233 232 233 235 234 234 234 238 239 242 244 245 247 249 248 248 248 251 256 262 266 268 270 273 276 278 278 278 278 279 279 280 281 281 280 281 281 281 281
235 234 234 232 230 225 223 225 228 230 229 230 234 238 238 239 243 247 247 245 246 251 256 261 266 269 272 274 277 278 279 280 281 281 281 282 283 282 282 282 282 283 283 282
222 219 217 215 216 214 215 217 219 222 224 227 229 233 237 242 244 246 247 246 250 255 261 265 269 272 275 278 280 282 283 284 285 285 286 286 286 285 285 286 285 285 284 284
212 206 205 205 208 209 209 210 213 215 218 224 226 229 235 241 244 247 252 256 258 262 266 270 273 276 278 281 283 285 285 286 287 287 288 288 288 287 288 288 287 287 287 287
206 201 198 199 201 196 198 204 207 209 215 217 219 227 235 241 248 254 260 264 267 269 272 274 276 278 281 284 285 286 287 288 288 288 289 289 289 289 289 288 288 287 287 287
194 190 189 189 190 191 197 202 205 212 216 223 232 238 244 250 256 261 267 270 272 274 276 279 281 282 284 285 286 287 288 289 289 289 290 290 290 290 289 289 288 288 287 287
185 185 187 186 189 190 197 209 218 226 233 241 244 249 255 260 264 267 271 274 276 279 281 283 284 285 286 287 288 289 289 290 290 290 291 291 291 290 290 290 290 289 289 288
192 195 196 197 200 206 214 222 230 240 246 249 253 260 264 269 273 275 278 280 282 284 285 286 286 287 288 288 289 290 291 291 292 292 292 292 292 292 292 291 291 290 290 289
204 205 206 212 218 224 229 233 240 250 256 260 265 270 274 278 280 282 284 285 285 286 286 287 288 289 290 290 292 293 294 294 295 295 294 293 293 293 293 293 293 292 292 292
216 221 226 229 232 239 244 249 254 261 266 270 274 277 279 280 282 283 284 285 286 287 288 289 290 291 292 293 295 296 296 297 297 296 296 296 296 296 295 295 295 295 294 294
220 226 236 243 247 252 256 260 265 269 273 275 277 279 281 282 284 285 287 288 289 290 291 292 293 294 295 296 297 297 298 298 298 298 297 297 297 297 297 297 296 296 296 295
231 237 244 248 253 259 263 267 270 273 276 279 281 283 284 285 286 288 289 290 291 292 293 294 295 295 297 298 298 298 299 299 299 299 299 298 298 299 299 299 298 298 298 298
240 245 249 253 258 264 269 272 276 279 282 284 286 287 287 288 289 290 291 293 294 294 294 295 296 297 298 299 298 298 298 299 299 300 301 302 302 302 302 301 301 300 300 300
246 250 254 259 264 269 273 277 280 283 285 286 287 288 288 289 290 291 292 293 294 294 295 295 297 298 299 298 297 297 297 298 299 301 302 304 304 304 304 303 303 303 303 304
252 258 263 268 273 277 279 281 282 283 285 286 287 288 289 291 291 292 293 294 294 294 296 297 298 299 299 298 298 298 298 299 300 301 302 304 306 306 306 305 305 305 305 305
262 266 271 274 277 279 280 281 282 283 286 287 288 289 290 290 291 292 293 294 295 295 296 297 298 299 299 300 300 300 301 301 302 303 304 306 308 308 306 306 306 307 307 307
270 273 275 276 277 278 280 282 283 285 287 288 290 291 291 292 293 294 294 295 296 296 296 297 298 300 301 302 302 304 305 305 305 306 307 308 309 310 310 310 310 310 310 310
Height
5790 5793 5796 5798 5801 5803 5805 5807 5809 5812 5813 5815 5816 5816 5817 5817 5818 5817 5817 5817 5817 5818 5819 5819 5820 5820 5821 5822 5823 5824 5825 5826 5827 5828 5829 5830 5831 5832 5833 5834 5834 5835 5836 5837
5781 5783 5785 5788 5792 5795 5798 5800 5803 5805 5808 5810 5810 5811 5812 5813 5813 5813 5813 5814 5814 5815 5816 5816 5817 5818 5818 5819 5820 5821 5821 5822 5823 5824 5825 5825 5826 5827 5827 5828 5828 5829 5829 5829
5772 5774 5774 5777 5784 5787 5790 5793 5796 5798 5802 5803 5805 5806 5807 5808 5808 5809 5810 5810 5811 5811 5812 5812 5813 5814 5815 5815 5815 5816 5817 5817 5818 5819 5820 5820 5821 5821 5821 5821 5821 5822 5822 5822
5761 5764 5764 5772 5774 5778 5781 5784 5787 5790 5794 5796 5798 5800 5801 5802 5803 5804 5805 5806 5806 5806 5807 5808 5809 5809 5810 5811 5811 5811 5812 5813 5813 5813 5814 5814 5815 5815 5814 5814 5814 5814 5814 5813
5752 5753 5755 5761 5764 5767 5771 5775 5779 5782 5785 5788 5790 5793 5795 5796 5797 5798 5799 5800 5801 5801 5802 5803 5804 5805 5805 5806 5806 5806 5806 5807 5807 5808 5808 5808 5808 5808 5807 5807 5807 5806 5805 5805
5743 5745 5747 5753 5756 5758 5762 5765 5771 5774 5777 5780 5783 5786 5788 5789 5790 5792 5793 5794 5795 5796 5796 5797 5798 5799 5800 5800 5800 5801 5801 5800 5801 5801 5802 5801 5801 5800 5799 5799 5798 5797 5796 5795
5736 5736 5739 5744 5746 5749 5754 5759 5762 5765 5769 5772 5775 5778 5780 5782 5783 5785 5786 5787 5788 5789 5790 5791 5792 5793 5794 5794 5794 5794 5794 5794 5794 5794 5794 5793 5793 5792 5791 5789 5788 5788 5786 5785
5728 5730 5734 5736 5738 5741 5745 5749 5753 5757 5761 5764 5767 5769 5772 5774 5776 5777 5779 5780 5781 5782 5783 5785 5786 5787 5787 5787 5787 5787 5787 5787 5786 5786 5786 5785 5784 5783 5782 5781 5779 5778 5776 5775
5722 5725 5726 5728 5730 5733 5737 5741 5745 5749 5753 5756 5759 5762 5764 5766 5768 5770 5771 5773 5774 5775 5777 5778 5779 5780 5780 5781 5780 5780 5779 5779 5779 5778 5777 5776 5775 5774 5772 5771 5770 5768 5766 5764
5716 5717 5719 5721 5724 5727 5730 5734 5738 5741 5745 5749 5752 5754 5757 5759 5760 5762 5764 5765 5767 5768 5770 5771 5772 5773 5773 5773 5773 5773 5772 5771 5770 5769 5768 5767 5765 5764 5762 5761 5759 5757 5755 5753
5710 5712 5714 5716 5718 5721 5724 5728 5731 5735 5738 5742 5745 5748 5750 5752 5753 5755 5757 5758 5760 5762 5763 5764 5765 5765 5765 5765 5765 5764 5764 5763 5761 5760 5759 5757 5755 5754 5751 5749 5748 5746 5744 5742
5706 5708 5710 5712 5714 5717 5720 5723 5726 5729 5732 5735 5738 5741 5743 5745 5747 5749 5751 5752 5754 5756 5757 5757 5758 5758 5758 5757 5757 5756 5755 5754 5752 5751 5749 5747 5745 5743 5741 5739 5737 5734 5732 5730
5702 5704 5706 5708 5711 5714 5716 5719 5721 5725 5727 5730 5732 5735 5738 5740 5742 5744 5745 5746 5748 5749 5750 5750 5750 5750 5750 5749 5749 5747 5746 5745 5743 5741 5739 5737 5735 5733 5730 5728 5725 5722 5720 5717
5701 5703 5704 5706 5708 5711 5713 5716 5718 5721 5724 5726 5729 5731 5733 5735 5737 5739 5740 5741 5742 5742 5743 5743 5743 5743 5742 5741 5740 5738 5737 5735 5733 5731 5729 5727 5724 5722 5719 5716 5713 5710 5707 5704
5699 5702 5703 5705 5707 5709 5711 5714 5716 5719 5721 5723 5725 5727 5729 5731 5733 5734 5735 5735 5736 5736 5736 5736 5736 5735 5734 5732 5731 5730 5728 5726 5723 5721 5718 5716 5713 5710 5707 5704 5701 5697 5694 5691
5698 5700 5702 5704 5706 5708 5710 5712 5714 5717 5719 5721 5723 5724 5726 5727 5728 5729 5730 5730 5730 5730 5729 5729 5728 5727 5725 5724 5722 5720 5718 5715 5713 5710 5707 5704 5701 5698 5695 5691 5688 5684 5680 5676
5697 5699 5701 5703 5705 5707 5709 5711 5713 5715 5716 5718 5720 5721 5722 5723 5724 5724 5724 5724 5724 5723 5722 5721 5720 5718 5717 5715 5713 5710 5708 5705 5702 5699 5695 5692 5688 5685 5681 5677 5674 5670 5666 5662
5696 5698 5700 5702 5704 5706 5708 5710 5711 5713 5714 5715 5716 5717 5718 5718 5718 5718 5718 5717 5717 5716 5714 5713 5711 5710 5707 5705 5703 5700 5697 5694 5690 5686 5683 5679 5675 5671 5667 5663 5659 5656 5651 5647
5695 5697 5699 5701 5703 5704 5706 5708 5709 5710 5711 5712 5712 5713 5713 5713 5713 5712 5711 5711 5709 5708 5706 5704 5702 5700 5698 5695 5692 5689 5685 5682 5678 5674 5670 5666 5662 5658 5654 5650 5646 5641 5637 5633
5694 5696 5698 5699 5701 5702 5704 5705 5706 5707 5707 5707 5708 5708 5707 5707 5707 5706 5705 5703 5702 5700 5698 5696 5693 5691 5688 5684 5681 5677 5674 5670 5666 5662 5658 5653 5649 5645 5641 5637 5633 5629 5625 5621
5692 5694 5696 5697 5698 5700 5701 5701 5702 5703 5703 5703 5703 5702 5702 5701 5700 5699 5697 5695 5693 5691 5688 5686 5683 5680 5677 5673 5670 5666 5662 5658 5654 5650 5646 5642 5637 5633 5629 5625 5621 5617 5613 5609
5690 5692 5693 5694 5695 5696 5697 5697 5698 5698 5698 5697 5697 5696 5695 5694 5692 5690 5688 5686 5684 5681 5679 5676 5673 5670 5666 5663 5659 5655 5651 5647 5643 5639 5635 5630 5626 5622 5618 5614 5610 5606 5602 5599
5687 5688 5689 5690 5691 5692 5692 5692 5692 5692 5691 5690 5689 5688 5687 5685 5683 5682 5680 5677 5674 5672 5669 5666 5663 5659 5656 5652 5648 5644 5640 5636 5632 5628 5624 5620 5616 5612 5608 5604 5600 5596 5592 5589
5683 5684 5685 5686 5686 5686 5686 5686 5685 5685 5684 5683 5681 5680 5678 5677 5675 5673 5670 5668 5665 5662 5659 5655 5652 5648 5645 5641 5637 5633 5630 5626 5622 5619 5615 5611 5607 5602 5598 5595 5591 5587 5584 5580
5679 5680 5680 5680 5680 5680 5680 5679 5679 5678 5677 5675 5673 5672 5670 5668 5666 5664 5661 5658 5655 5652 5649 5645 5641 5638 5634 5630 5627 5623 5620 5617 5613 5610 5606 5602 5598 5594 5590 5587 5583 5580 5576 5573
5674 5674 5674 5674 5674 5673 5673 5672 5671 5670 5669 5667 5665 5663 5661 5659 5657 5654 5651 5648 5645 5642 5638 5635 5631 5628 5624 5621 5618 5614 5611 5608 5605 5601 5598 5594 5591 5587 5583 5580 5576 5573 5570 5567
5668 5668 5668 5668 5667 5666 5666 5665 5663 5662 5660 5659 5657 5655 5653 5650 5647 5645 5642 5638 5635 5632 5629 5626 5622 5619 5616 5613 5610 5607 5604 5601 5597 5594 5591 5587 5584 5580 5577 5573 5570 5567 5564 5561